Burlington, VT

10:11 PM EST on December 14, 2019 (GMT -0500)
Burlington International

Weather History for KBTV - November, 2019

Change the Weather History Date:

Monday, November 18, 2019

  Actual Average Record
Temperature  
Mean Temperature 28 °F 38 °F  
Max Temperature 38 °F 45 °F 70 °F (1892)
Min Temperature 17 °F 31 °F 9 °F (1924)
Degree Days  
Heating Degree Days 37 27  
Month to date heating degree days 584 442  
Since 1 July heating degree days 1091 1183  
Cooling Degree Days 0 0  
Month to date cooling degree days 0 0  
Year to date cooling degree days 606 491  
Moisture  
Dew Point 21 °F    
Average Humidity 72    
Maximum Humidity 84    
Minimum Humidity 59    
Precipitation  
Precipitation T in 0.10 in 2.29 in (1918)
Month to date precipitation 1.75 1.95  
Year to date precipitation 40.25 33.26  
Snow  
Snow 0.00 in 0.10 in 9.80 in (1980)
Month to date snowfall 10.2 2.0  
Since 1 July snowfall 10.2 2.3  
Since 1 September snowfall 10.2 2.3  
Snow Depth 4.00 in    
Sea Level Pressure  
Sea Level Pressure 29.94 in    
Wind  
Wind Speed 5 mph (North)    
Max Wind Speed 12 mph    
Max Gust Speed 13 mph    
Visibility 10 miles    
Events Rain    
T = Trace of Precipitation, MM = Missing Value Source: NWS Daily Summary

Daily Weather History Graph

Daily Weather History Graph

Search for Another Location

Airport or City:

Astronomy

Nov. 18, 2019 Rise Set
Actual Time 6:52 AM EST 4:22 PM EST
Civil Twilight 6:20 AM EST 4:54 PM EST
Nautical Twilight 5:45 AM EST 5:29 PM EST
Astronomical Twilight 5:10 AM EST 6:04 PM EST
Moon 10:03 PM EST (11/18) 12:23 PM EST (11/18)
Length of Visible Light 10h 33m
Length of Day
9h 30m
Waning Gibbous, 63% of the Moon is Illuminated
Nov 18
Waning Gibbous
Nov 19
Last Quarter
Nov 26
New
Dec 4
First Quarter
Dec 12
Full

Hourly Weather History & Observations

Time (EST) Temp. Windchill Dew Point Humidity Pressure Visibility Wind Dir Wind Speed Gust Speed Precip Events Conditions
2:54 AM 18.0 °F - 12.0 °F 78% 30.11 in 10.0 mi Calm Calm - N/A   Clear
3:54 AM 18.0 °F - 14.0 °F 84% 30.09 in 10.0 mi Calm Calm - N/A   Clear
4:54 AM 19.0 °F - 14.0 °F 81% 30.07 in 10.0 mi Calm Calm - N/A   Clear
5:54 AM 19.9 °F 14.9 °F 15.1 °F 81% 30.06 in 10.0 mi East 3.5 mph - N/A   Mostly Cloudy
6:54 AM 19.9 °F - 15.1 °F 81% 30.05 in 10.0 mi Calm Calm - N/A   Mostly Cloudy
7:54 AM 23.0 °F 17.0 °F 17.1 °F 78% 30.04 in 10.0 mi ENE 4.6 mph - N/A   Mostly Cloudy
8:54 AM 27.0 °F 23.0 °F 19.9 °F 75% 30.01 in 10.0 mi ENE 3.5 mph - N/A   Mostly Cloudy
9:54 AM 30.0 °F 24.1 °F 21.9 °F 72% 30.00 in 10.0 mi NNW 5.8 mph - N/A   Overcast
10:54 AM 35.1 °F 32.2 °F 24.1 °F 64% 29.97 in 10.0 mi NNE 3.5 mph - N/A   Mostly Cloudy
11:54 AM 37.0 °F 34.5 °F 24.1 °F 59% 29.94 in 10.0 mi NW 3.5 mph - N/A   Mostly Cloudy
12:54 PM 37.0 °F 32.4 °F 26.1 °F 65% 29.91 in 10.0 mi NW 5.8 mph - N/A   Overcast
1:54 PM 37.0 °F 31.6 °F 25.0 °F 62% 29.90 in 10.0 mi NW 6.9 mph - N/A   Mostly Cloudy
2:54 PM 36.0 °F 29.0 °F 27.0 °F 70% 29.87 in 10.0 mi NW 9.2 mph - N/A   Overcast
3:54 PM 37.0 °F 31.6 °F 27.0 °F 67% 29.86 in 10.0 mi NNW 6.9 mph - N/A   Overcast
4:54 PM 36.0 °F 29.6 °F 25.0 °F 64% 29.84 in 10.0 mi NNW 8.1 mph - N/A   Overcast
5:54 PM 35.1 °F 29.3 °F 25.0 °F 67% 29.84 in 10.0 mi NNW 6.9 mph - 0.00 in Rain Light Rain
6:54 PM 34.0 °F 27.2 °F 25.0 °F 70% 29.82 in 10.0 mi NNW 8.1 mph - 0.00 in   Overcast
7:54 PM 33.1 °F 25.5 °F 26.1 °F 75% 29.81 in 10.0 mi NNW 9.2 mph - 0.00 in   Light Drizzle
8:54 PM 32.0 °F 24.8 °F 26.1 °F 79% 29.80 in 10.0 mi NNW 8.1 mph - 0.00 in   Overcast
9:54 PM 32.0 °F 25.6 °F 25.0 °F 75% 29.78 in 10.0 mi North 6.9 mph - N/A   Overcast
10:54 PM 32.0 °F 24.8 °F 24.1 °F 73% 29.78 in 10.0 mi North 8.1 mph - N/A   Overcast
11:54 PM 30.9 °F 22.8 °F 23.0 °F 72% 29.76 in 10.0 mi NNW 9.2 mph - N/A   Overcast